Dewpoint
22 22 19 20 20 18 16 10 7 7 4 4 7 8 7 5 4 4 6 6 9 8 9 10 12 9 11 40 55 58 58 59 60 60 60 60 60 61 61 63 64 64 64 65 66 66 66 66 67 67 67 67 67 68 68 68 68 68 68 68 67 67 67 67 67 67 67 66 66 66 66 65 64 63 63 64 63 62 63 63 63 64 64 64 65 65
22 23 22 22 21 18 17 14 14 7 9 5 9 8 5 6 5 5 5 7 8 16 13 13 11 11 12 26 50 55 56 57 59 59 59 60 60 60 61 63 63 64 65 65 65 66 66 67 67 67 67 67 67 67 68 67 68 68 68 68 67 67 67 66 66 67 67 66 65 65 65 65 63 62 62 62 63 63 64 64 64 64 64 64 64 65
19 20 22 20 20 19 18 15 12 9 9 7 6 7 8 5 7 6 9 8 9 11 8 9 9 8 12 19 38 51 55 56 59 59 59 59 59 59 61 63 63 64 64 65 65 66 66 66 66 66 66 67 67 67 67 67 67 67 67 67 67 67 66 66 66 66 66 66 64 63 62 62 62 62 64 64 64 65 63 63 64 64 64 64 64 64
18 17 19 20 19 17 18 13 12 11 13 10 11 8 4 6 6 5 15 15 9 10 14 14 10 12 18 19 29 48 53 55 58 58 59 59 59 59 61 63 63 64 64 64 64 65 65 66 66 66 66 66 66 66 66 66 66 66 66 66 66 66 65 65 65 66 64 64 63 63 63 62 63 62 64 63 63 63 63 63 64 64 64 64 64 64
14 17 20 20 19 17 17 17 13 12 9 17 10 8 5 4 6 5 11 14 19 14 20 12 16 12 18 15 17 29 50 53 56 57 58 59 59 59 62 63 64 64 64 64 64 65 65 65 65 65 65 66 65 65 65 65 65 66 65 65 65 65 65 64 65 65 63 63 62 60 61 61 61 60 60 60 60 61 63 63 62 63 64 64 64 63
9 13 20 19 18 17 18 15 11 12 9 11 16 9 7 9 7 9 16 13 18 13 20 7 7 11 13 13 14 18 33 45 53 55 56 57 58 60 61 63 64 64 64 64 64 64 65 65 65 64 65 65 65 64 64 65 65 65 64 64 64 63 63 63 63 62 62 62 61 60 60 59 58 59 59 59 60 61 61 62 63 63 63 63 63 63
10 17 20 18 18 17 16 16 14 10 8 10 8 11 9 9 10 9 7 8 9 8 13 20 7 13 18 14 16 19 34 42 50 53 55 55 57 60 62 63 64 64 64 65 65 65 64 64 64 64 65 64 64 64 64 65 64 64 64 64 64 63 62 62 62 63 62 61 61 60 60 59 59 60 59 60 61 62 62 62 63 63 63 64 63 63
12 12 19 19 18 17 16 16 15 9 9 6 13 9 8 8 8 11 9 9 11 20 19 17 9 7 7 11 18 20 30 40 48 51 53 54 58 60 62 63 63 64 64 64 64 64 64 64 64 64 64 64 64 64 64 64 64 64 64 64 63 63 63 63 62 61 61 60 60 60 59 60 60 60 60 61 62 63 63 63 63 62 63 63 63 63
15 15 17 18 18 16 16 16 15 9 7 9 12 8 8 8 8 7 6 10 14 12 8 18 14 9 10 17 28 24 28 40 46 49 52 55 58 60 61 62 63 64 64 64 64 64 64 64 64 64 64 64 64 64 64 64 63 63 63 63 63 63 64 64 63 61 61 61 60 60 60 60 60 61 61 62 62 62 63 63 62 62 62 62 62 62
14 14 15 16 16 15 16 15 13 11 9 11 11 11 13 8 10 7 9 6 14 11 9 12 12 7 7 21 29 36 34 41 45 49 52 55 58 60 61 62 63 64 64 64 65 64 64 64 64 64 64 64 64 64 64 63 63 63 63 63 63 62 62 63 62 61 61 61 61 60 60 60 60 60 60 60 61 60 60 62 62 61 61 61 62 61
17 26 21 15 16 16 17 16 13 11 12 12 8 8 10 9 11 18 13 11 13 8 10 12 13 7 5 15 29 34 40 43 47 50 52 56 58 60 61 62 63 63 64 64 64 64 64 63 61 61 61 63 63 63 64 63 63 63 64 64 63 63 63 63 63 63 62 62 62 61 61 61 60 60 61 60 60 60 59 59 59 61 61 61 61 61
9 13 18 16 20 17 17 16 15 12 11 8 8 8 7 11 12 13 14 17 8 11 11 14 11 7 6 13 20 36 47 48 49 50 53 56 58 59 61 62 63 63 64 64 64 60 57 57 58 58 58 60 62 63 63 63 63 62 62 61 61 61 62 62 63 63 63 63 63 63 63 63 63 62 62 61 60 60 60 59 59 60 62 62 62 62
5 5 12 16 28 15 15 15 14 12 10 8 11 9 6 11 6 4 8 7 10 11 17 17 11 9 7 16 43 48 48 47 50 51 54 56 58 59 61 62 63 63 63 63 60 58 57 58 58 57 59 60 61 62 61 61 60 60 60 60 60 60 60 61 62 62 62 62 62 63 64 64 64 64 63 63 61 61 61 60 59 59 60 61 61 62
5 5 11 13 18 19 13 13 12 10 9 8 7 11 6 6 3 1 6 9 14 15 17 16 16 11 21 34 48 48 50 49 50 52 55 56 58 59 61 62 61 61 62 61 59 58 57 59 59 60 61 61 60 60 60 59 59 59 59 59 59 59 60 60 61 61 61 62 61 61 61 62 61 61 61 61 61 61 61 61 60 60 60 59 59 59
4 3 4 10 14 16 13 13 11 13 9 8 7 8 10 10 9 1 8 6 8 10 15 26 10 7 25 33 50 51 51 51 54 56 57 58 59 60 61 60 60 60 60 59 58 59 59 61 61 60 60 60 59 59 59 59 59 59 58 59 59 59 59 59 60 61 60 60 61 61 61 61 61 60 59 59 60 60 60 59 58 59 58 58 60 60
1 7 14 11 15 15 13 13 12 9 8 8 7 9 10 8 19 6 16 14 13 9 8 26 25 40 41 50 52 51 51 55 56 57 58 58 59 59 59 59 59 59 59 59 59 59 59 59 59 59 58 59 59 58 58 58 58 58 58 58 59 59 59 59 60 60 60 59 59 60 60 60 60 60 59 59 58 58 58 58 58 59 58 59 59 60
7 7 8 16 14 14 14 14 11 9 11 13 7 7 7 16 17 12 8 21 14 13 11 32 40 44 49 50 52 53 53 54 56 56 57 57 57 58 57 57 58 58 58 58 57 58 58 58 58 58 58 58 58 58 58 58 58 58 57 57 57 57 58 58 59 59 59 59 58 59 59 59 59 59 58 57 57 57 58 57 58 57 58 58 58 59
8 14 17 13 11 12 14 15 12 9 15 7 6 8 17 21 21 13 11 13 12 12 10 36 37 41 37 32 51 52 52 53 54 55 55 55 56 55 56 56 57 57 57 57 57 57 58 57 58 58 57 57 57 57 57 57 58 58 57 56 56 56 57 57 58 58 58 58 58 58 58 58 58 58 58 57 56 57 57 57 58 58 58 58 59 59
19 10 14 15 12 13 14 14 13 9 11 6 7 12 7 11 8 18 15 6 4 3 14 32 39 40 37 37 49 49 50 51 53 53 54 54 54 54 54 55 55 56 56 56 56 56 56 56 57 57 57 58 57 57 57 57 57 57 57 56 56 56 57 57 58 57 57 58 58 58 58 58 58 58 57 57 58 57 57 57 58 58 58 58 59 59
25 13 19 23 11 13 13 13 15 13 10 14 9 7 13 16 19 12 15 15 13 7 23 30 39 33 41 41 50 50 51 52 52 52 53 53 53 53 54 54 54 54 55 55 55 55 56 56 56 56 57 57 57 57 56 56 56 55 56 55 55 56 56 56 56 56 56 57 57 57 57 57 57 57 56 56 56 57 58 60 59 59 59 59 59 59
14 23 13 21 24 16 12 14 14 15 12 11 9 9 12 18 21 17 22 13 11 12 22 30 31 35 38 42 50 50 51 52 52 52 52 52 53 53 53 53 54 54 54 54 54 55 55 55 56 56 56 55 54 55 54 54 54 54 55 54 55 54 55 55 56 55 55 56 56 56 56 56 56 57 58 58 58 58 58 58 58 59 59 60 60 60
14 18 17 25 19 13 17 21 14 14 11 11 10 12 9 11 13 8 13 18 19 20 24 26 23 29 35 45 50 51 52 52 52 52 51 52 52 52 53 53 53 53 53 54 54 54 54 54 54 54 53 53 53 53 53 53 53 53 53 53 53 53 54 55 55 55 54 54 56 55 55 56 57 58 57 56 56 56 56 56 57 58 58 58 60 60
20 25 18 14 17 22 21 22 20 16 14 15 8 12 9 15 16 12 9 15 15 19 29 27 24 26 36 45 50 51 52 52 52 51 51 51 52 52 53 53 53 53 53 53 53 53 53 53 53 53 52 52 52 52 51 51 52 52 51 52 52 53 54 56 56 56 56 56 56 56 57 57 56 56 55 55 55 54 54 55 55 57 57 58 59 59
37 16 17 19 25 26 24 23 23 24 15 14 14 20 15 14 16 15 21 21 14 18 20 18 22 28 41 47 49 51 51 51 51 51 51 51 52 52 52 52 52 52 52 52 52 52 53 53 53 52 52 51 51 51 50 51 51 51 51 52 53 54 54 55 55 55 55 55 56 56 56 55 55 54 53 53 53 53 53 53 54 56 56 57 58 57
14 19 18 17 15 17 22 23 19 21 20 23 19 19 13 20 20 27 25 22 14 21 21 19 18 34 44 48 50 51 51 51 51 51 51 51 51 51 51 52 51 52 51 52 52 52 51 52 52 52 51 51 51 51 50 50 50 50 51 52 53 53 53 54 54 54 54 55 55 55 55 54 54 53 52 52 52 52 53 54 54 55 55 56 56 56
16 24 17 12 12 12 13 16 19 16 18 25 31 27 16 14 22 17 15 15 12 24 22 19 25 37 47 49 50 50 50 50 51 51 51 51 51 51 50 50 50 50 50 50 49 49 50 52 52 51 51 51 51 51 50 49 50 51 51 51 51 52 52 52 53 54 54 54 54 54 54 53 52 52 51 52 52 52 53 53 53 53 53 54 54 54
20 28 20 21 20 20 24 26 30 30 34 27 33 35 35 26 27 25 25 20 17 23 21 29 36 40 43 47 47 48 49 48 49 50 49 50 50 50 49 49 49 49 48 48 47 48 49 51 51 50 50 50 50 50 50 50 50 51 51 51 51 51 51 52 53 53 53 54 54 53 53 53 53 52 51 52 52 52 52 52 51 51 50 51 51 51
28 20 24 25 24 23 28 32 34 34 35 37 35 34 37 27 25 22 20 19 26 27 22 33 42 42 43 46 47 47 48 49 49 49 50 49 49 49 48 48 48 47 46 46 47 48 49 50 50 49 50 50 50 50 50 50 51 51 51 51 51 51 51 52 52 53 53 53 53 53 52 53 53 52 52 52 51 51 51 51 50 50 49 49 49 49
24 20 25 32 35 36 38 37 36 38 38 37 37 36 36 36 23 20 23 27 26 21 20 37 43 42 44 47 48 48 48 48 49 49 49 49 49 48 47 47 46 46 46 46 46 46 46 46 47 47 48 49 49 49 49 50 51 51 51 50 50 51 51 50 51 52 52 52 53 53 53 53 53 52 51 51 51 51 50 50 49 49 49 48 48 48
31 29 34 35 35 37 37 38 38 36 36 36 36 36 37 37 30 27 27 31 27 25 32 42 42 42 46 47 48 48 49 49 49 49 49 48 47 46 46 45 44 46 46 45 45 45 45 44 44 45 46 48 48 49 50 50 50 50 50 49 49 50 50 51 51 51 51 51 52 52 52 52 52 52 51 51 50 50 50 49 49 48 48 47 47 46
28 24 36 34 32 33 36 37 36 37 35 34 35 37 37 36 36 36 37 37 38 40 41 42 40 40 45 49 48 49 49 49 49 48 48 48 47 46 45 44 44 43 44 43 43 43 43 44 44 44 44 45 48 49 50 50 49 49 49 49 49 49 49 50 50 51 51 51 51 52 52 52 52 51 51 51 50 49 49 48 48 47 47 46 46 46
33 28 32 31 29 29 35 35 33 33 32 31 31 36 37 37 35 35 33 36 37 38 41 42 40 40 45 48 48 48 48 48 47 47 48 47 47 46 45 44 43 43 43 43 43 43 43 43 43 43 44 47 49 49 49 49 49 48 48 48 48 48 49 50 50 50 50 51 51 51 51 51 51 51 51 50 49 48 48 47 47 46 46 45 45 45
31 32 26 27 28 27 33 35 31 30 28 25 25 35 37 37 37 37 38 40 40 42 39 37 40 44 46 47 47 47 47 47 47 48 48 47 47 47 45 44 43 43 43 43 42 42 42 43 43 45 48 49 49 49 48 48 48 47 47 47 47 48 49 49 49 49 49 50 50 50 51 51 50 51 50 49 48 47 47 46 46 45 45 44 45 44
30 28 26 29 28 28 33 33 32 27 18 22 30 37 38 38 39 38 38 39 40 40 39 40 43 46 47 47 46 46 47 47 48 48 49 48 47 46 45 44 43 44 44 44 42 42 43 44 45 47 48 48 48 48 48 48 48 47 47 48 48 48 48 48 48 48 48 49 50 50 50 50 50 50 49 48 48 47 46 46 45 45 45 44 44 43
29 29 26 26 29 28 28 27 24 17 21 30 35 38 41 42 43 42 43 42 41 41 43 45 46 46 47 47 47 47 47 48 48 48 48 48 47 45 44 43 43 43 43 43 43 43 43 45 46 47 47 47 47 47 47 46 46 46 46 46 46 47 47 47 47 47 48 48 49 49 49 49 49 49 49 48 48 47 46 46 45 44 44 43 43 43
28 30 25 27 24 25 24 20 16 15 28 35 37 40 44 43 42 43 42 43 41 41 43 44 46 47 46 46 47 46 46 46 46 46 47 46 47 45 43 43 43 43 43 43 43 44 44 45 45 45 45 46 46 46 45 45 45 45 44 44 45 45 46 46 46 46 47 47 48 48 49 48 48 48 47 47 47 47 46 45 44 44 43 43 42 42
32 30 29 27 25 23 22 22 22 30 31 33 36 38 40 37 38 37 36 38 42 43 45 45 46 46 45 45 45 45 45 45 44 44 46 46 46 46 46 45 44 44 45 45 44 44 45 45 45 45 45 45 45 45 44 44 44 43 43 42 43 43 44 44 44 45 45 46 47 47 48 48 47 47 46 46 45 45 45 44 44 43 43 42 42 41
33 29 28 28 24 26 27 23 24 22 22 28 34 39 43 43 41 39 38 37 43 45 46 45 44 44 44 44 45 45 45 43 41 40 44 45 45 45 46 45 46 45 44 43 43 44 44 44 45 45 44 44 44 43 44 43 42 42 41 41 41 42 42 43 43 44 44 45 45 46 47 47 47 46 46 45 45 44 44 44 43 43 43 42 41 41
33 32 31 28 28 27 24 22 20 20 23 29 34 38 41 43 42 40 37 36 41 44 45 45 44 44 44 44 44 45 43 40 39 40 43 45 44 44 45 45 45 43 43 43 43 43 44 44 44 44 44 43 43 43 43 42 41 41 41 41 41 41 42 42 43 43 43 44 44 45 45 46 46 46 45 45 44 44 43 43 43 43 42 42 41 41
30 28 28 30 25 23 24 22 23 24 25 34 36 40 43 43 41 36 31 33 41 44 44 45 44 44 44 45 45 44 42 39 39 41 44 44 44 44 44 44 43 42 42 43 43 43 44 44 44 43 43 43 43 43 42 42 41 41 40 40 40 41 41 42 42 43 43 43 43 43 44 44 44 44 44 43 43 43 42 42 41 41 41 41 41 40
27 27 30 29 26 24 26 22 23 26 31 36 39 41 42 42 37 31 28 30 42 44 44 45 44 44 44 44 45 42 38 42 42 43 43 43 43 42 42 42 42 42 42 42 43 43 43 43 43 43 43 43 43 43 42 41 41 40 40 40 40 40 41 41 42 42 42 42 42 42 42 42 42 42 42 42 42 42 41 41 40 40 40 40 40 40
25 26 28 27 26 26 20 26 26 25 32 38 39 41 42 36 31 30 35 38 44 44 44 44 44 44 44 44 40 40 41 43 43 42 42 42 42 42 43 43 42 42 42 42 42 42 42 42 43 43 43 43 43 43 42 41 40 40 40 40 40 40 40 41 41 41 41 41 41 41 41 42 42 42 42 42 41 40 40 40 40 40 39 39 39 38
27 26 26 25 24 24 19 22 22 22 31 39 40 39 39 33 32 36 39 42 44 44 44 44 44 43 41 40 41 41 41 41 41 42 42 42 42 41 41 41 41 41 40 40 40 41 42 42 42 42 42 42 42 42 42 41 40 39 39 39 39 40 40 39 40 40 40 40 40 41 41 41 41 41 41 41 40 39 39 39 39 39 39 38 38 38
31 29 27 26 27 25 21 23 26 31 35 37 38 33 37 37 40 41 42 42 43 44 44 43 43 41 42 41 41 41 41 40 40 41 41 41 41 41 41 40 40 40 39 39 40 41 41 42 42 42 42 42 42 41 41 40 39 39 38 38 39 39 39 38 38 38 38 39 39 39 40 40 40 40 40 40 39 39 38 38 38 39 39 38 38 38
31 30 30 29 32 24 26 30 36 38 38 38 38 37 39 40 41 42 40 42 42 43 44 43 40 41 41 41 41 40 40 40 40 40 40 40 41 41 40 40 39 38 38 38 39 40 41 41 41 41 41 41 40 40 39 39 38 38 37 36 38 37 37 37 37 37 37 37 38 38 38 39 39 39 39 39 39 38 38 37 38 38 38 39 38 38
37 36 36 36 35 38 39 39 39 38 37 37 38 38 38 39 41 41 41 41 40 42 43 42 41 41 41 41 40 40 40 40 40 40 41 40 40 40 39 38 38 38 37 38 39 40 40 40 40 40 40 39 39 39 39 38 38 37 36 37 37 36 36 36 36 36 36 36 37 37 37 37 37 38 38 38 38 38 37 37 38 38 37 38 38 38
36 36 34 33 37 34 31 38 38 37 37 37 37 38 39 39 39 39 40 40 40 41 42 43 42 41 41 40 40 39 39 40 39 40 41 40 39 39 38 37 37 37 37 37 38 39 40 39 39 39 39 39 39 39 38 37 37 37 37 36 36 35 35 35 35 36 36 36 37 37 37 37 37 37 38 38 38 37 37 37 36 37 37 36 36 36
33 36 34 34 35 32 33 37 37 37 37 38 37 37 37 38 39 39 40 40 40 41 42 42 43 41 41 40 39 39 39 39 39 39 40 40 39 38 37 36 36 36 36 37 38 39 39 39 39 39 39 39 39 38 38 37 37 36 36 35 35 35 35 35 36 36 36 36 37 37 37 37 35 36 36 36 36 36 36 36 35 35 34 34 35 35
36 36 30 33 33 37 38 37 37 37 38 38 38 38 38 38 39 39 39 40 40 40 40 42 42 42 42 40 40 41 40 40 40 41 40 40 39 38 37 36 36 36 37 38 38 38 39 38 38 39 39 38 38 38 37 37 36 36 35 35 35 35 35 35 35 36 36 36 37 37 37 37 36 36 36 35 35 34 34 34 34 35 35 34 33 33
33 31 35 36 33 33 33 35 37 34 33 36 38 39 38 39 39 39 39 39 39 39 40 40 41 42 42 41 40 40 40 40 41 40 40 40 40 40 38 36 37 37 37 37 37 37 38 38 38 38 38 38 38 38 37 37 36 36 35 35 35 35 35 36 36 36 36 36 36 36 37 36 36 36 36 36 35 35 35 34 35 35 35 34 36 36
32 31 32 33 33 33 36 37 37 37 37 37 38 39 40 39 39 38 38 38 39 39 39 39 40 40 41 41 41 40 40 40 41 41 40 41 41 41 41 39 37 37 37 37 36 36 37 38 38 38 37 38 38 37 37 37 36 36 36 35 35 35 35 35 36 36 36 36 36 36 36 36 36 35 35 35 35 35 35 34 34 34 35 36 36 35